Weather History for Port Angeles, WA

Change the Weather History Date:

Sunday, September 2, 2012

  Actual Average Record
Temperature  
Mean Temperature 57 °F -  
Max Temperature 68 °F 67 °F 84 °F (2003)
Min Temperature 50 °F 51 °F 41 °F (1960)
Degree Days  
Heating Degree Days 8    
Growing Degree Days 7 (Base 50)    
Moisture  
Dew Point 49 °F    
Average Humidity 74    
Maximum Humidity 90    
Minimum Humidity 58    
Precipitation  
Precipitation 0.00 in - - ()
Sea Level Pressure  
Sea Level Pressure 30.17 in    
Wind  
Wind Speed 6 mph (WNW)    
Max Wind Speed 10 mph    
Max Gust Speed -    
Visibility 10 miles    
Events      
Averages and records for this station are not official NWS values.
T = Trace of Precipitation, MM = Missing Value Source: NWS Daily Summary

Daily Weather History Graph

Daily Weather History Graph

Search for Another Location

Airport:

Trip Planner

Search our weather history database for the weather conditions in past years. The results will help you decide how hot, cold, wet, or windy it might be!

Date:

Astronomy

Sep. 02, 2012 Rise Set
Actual Time 6:34 AM PDT 7:51 PM PDT
Civil Twilight 6:01 AM PDT 8:23 PM PDT
Nautical Twilight 5:22 AM PDT 9:02 PM PDT
Astronomical Twilight 4:41 AM PDT 9:44 PM PDT
Moon 8:24 PM PDT (9/2) 9:04 AM PDT (9/2)
Length of Visible Light 14h 22m
Length of Day
13h 17m
Waning Gibbous, 95% of the Moon is Illuminated
Sep 2
Waning Gibbous
Sep 8
Last Quarter
Sep 15
New
Sep 22
First Quarter
Sep 29
Full

Hourly Weather History & Observations

Time (PDT) Temp. Dew Point Humidity Pressure Visibility Wind Dir Wind Speed Gust Speed Precip Events Conditions
12:53 AM 50.0 °F 45.0 °F 83% 30.15 in 10.0 mi WSW 5.8 mph - N/A   Clear
1:53 AM 51.1 °F 46.0 °F 83% 30.15 in 10.0 mi WSW 5.8 mph - N/A   Clear
2:53 AM 50.0 °F 46.0 °F 86% 30.15 in 10.0 mi SW 5.8 mph - N/A   Clear
3:53 AM 51.1 °F 46.0 °F 83% 30.15 in 10.0 mi WSW 8.1 mph - N/A   Clear
4:53 AM 52.0 °F 46.0 °F 80% 30.15 in 10.0 mi WSW 8.1 mph - N/A   Clear
5:53 AM 52.0 °F 46.9 °F 83% 30.15 in 10.0 mi WSW 6.9 mph - 0.00 in   Mostly Cloudy
6:53 AM 50.0 °F 46.0 °F 86% 30.17 in 10.0 mi SW 5.8 mph - N/A   Mostly Cloudy
7:53 AM 53.1 °F 48.0 °F 83% 30.18 in 10.0 mi Calm Calm - N/A   Partly Cloudy
8:53 AM 55.9 °F 46.9 °F 72% 30.18 in 10.0 mi North 3.5 mph - N/A   Mostly Cloudy
9:53 AM 60.1 °F 48.0 °F 64% 30.19 in 10.0 mi North 3.5 mph - N/A   Clear
10:53 AM 62.1 °F 50.0 °F 65% 30.19 in 10.0 mi Variable 5.8 mph - N/A   Clear
11:53 AM 61.0 °F 50.0 °F 67% 30.20 in 10.0 mi North 6.9 mph - N/A   Overcast
12:53 PM 64.9 °F 50.0 °F 58% 30.19 in 10.0 mi NW 8.1 mph - N/A   Mostly Cloudy
1:53 PM 63.0 °F 51.1 °F 65% 30.19 in 10.0 mi North 9.2 mph - N/A   Clear
2:53 PM 64.9 °F 51.1 °F 61% 30.18 in 10.0 mi North 6.9 mph - N/A   Partly Cloudy
3:53 PM 64.9 °F 50.0 °F 58% 30.17 in 10.0 mi NW 8.1 mph - N/A   Clear
4:53 PM 63.0 °F 48.9 °F 60% 30.17 in 10.0 mi NNW 9.2 mph - N/A   Clear
5:53 PM 63.0 °F 50.0 °F 63% 30.17 in 10.0 mi WNW 10.4 mph - N/A   Clear
6:53 PM 62.1 °F 50.0 °F 65% 30.16 in 10.0 mi WNW 8.1 mph - N/A   Clear
7:53 PM 57.9 °F 50.0 °F 75% 30.16 in 10.0 mi West 8.1 mph - N/A   Clear
8:53 PM 55.9 °F 50.0 °F 80% 30.16 in 10.0 mi West 5.8 mph - N/A   Clear
9:53 PM 55.0 °F 51.1 °F 86% 30.16 in 10.0 mi WNW 6.9 mph - N/A   Clear
10:53 PM 54.0 °F 51.1 °F 90% 30.15 in 10.0 mi WNW 9.2 mph - N/A   Clear
11:53 PM 54.0 °F 51.1 °F 90% 30.16 in 10.0 mi West 8.1 mph - N/A   Clear